Weather History for Meadow Lake, CO

Change the Weather History Date:

Sunday, March 24, 2013

  Actual Average (KCOS) Record (KCOS)
Temperature  
Mean Temperature 15 °F 41 °F  
Max Temperature 28 °F 54 °F 74 °F (2012)
Min Temperature 2 °F 28 °F 2 °F (1965)
Degree Days  
Heating Degree Days 50 24  
Month to date heating degree days 643  
Since 1 July heating degree days 5206  
Cooling Degree Days 0 0  
Month to date cooling degree days 0  
Year to date cooling degree days 0  
Moisture  
Dew Point 4 °F    
Average Humidity 64    
Maximum Humidity 83    
Minimum Humidity 33    
Precipitation  
Precipitation 0.00 in 0.03 in 1.09 in (1941)
Month to date precipitation 0.75  
Year to date precipitation 1.41  
Snow  
Snow 0.00 in 0.20 in 6.00 in (1941)
Month to date snowfall 6.2  
Since 1 July snowfall 30.2  
Snow Depth -    
Sea Level Pressure  
Sea Level Pressure 30.01 in    
Wind  
Wind Speed 8 mph (NNW)    
Max Wind Speed 17 mph    
Max Gust Speed 24 mph    
Visibility 10 miles    
Events Snow    
T = Trace of Precipitation, MM = Missing Value Source: NWS Daily Summary

Daily Weather History Graph

Daily Weather History Graph

Search for Another Location

Airport:

Trip Planner

Search our weather history database for the weather conditions in past years. The results will help you decide how hot, cold, wet, or windy it might be!

Date:

Astronomy

Mar. 24, 2013 Rise Set
Actual Time 6:54 AM MDT 7:14 PM MDT
Civil Twilight 6:28 AM MDT 7:41 PM MDT
Nautical Twilight 5:57 AM MDT 8:12 PM MDT
Astronomical Twilight 5:25 AM MDT 8:44 PM MDT
Moon 4:46 PM MDT (3/24) 5:05 AM MDT (3/24)
Length of Visible Light 13h 12m
Length of Day
12h 19m
Waxing Gibbous, 92% of the Moon is Illuminated
Mar 24
Waxing Gibbous
Mar 27
Full
Apr 2
Last Quarter
Apr 10
New
Apr 18
First Quarter

Hourly Weather History & Observations

Time (MDT) Temp. Windchill Dew Point Humidity Pressure Visibility Wind Dir Wind Speed Gust Speed Precip Events Conditions
12:15 AM 10.4 °F -0.4 °F 3.9 °F 75% 30.07 in 10.0 mi WNW 6.9 mph - N/A   Overcast
12:35 AM 9.3 °F -0.5 °F 3.2 °F 76% 30.06 in 10.0 mi WNW 5.8 mph - N/A   Overcast
12:55 AM 8.6 °F -1.3 °F 2.8 °F 77% 30.06 in 10.0 mi NW 5.8 mph - N/A   Scattered Clouds
1:15 AM 6.8 °F -3.5 °F 1.2 °F 78% 30.05 in 10.0 mi NW 5.8 mph - N/A   Clear
1:35 AM 5.7 °F -6.1 °F 0.9 °F 80% 30.06 in 10.0 mi West 6.9 mph - N/A   Clear
1:55 AM 6.8 °F -0.1 °F 0.7 °F 76% 30.05 in 10.0 mi WSW 3.5 mph - N/A   Clear
2:15 AM 5.7 °F -3.2 °F -0.8 °F 75% 30.04 in 10.0 mi West 4.6 mph - N/A   Clear
2:35 AM 3.2 °F -6.2 °F -1.7 °F 80% 30.04 in 10.0 mi West 4.6 mph - N/A   Clear
2:55 AM 3.7 °F -5.5 °F -0.9 °F 81% 30.03 in 10.0 mi WNW 4.6 mph - N/A   Mostly Cloudy
3:15 AM 3.4 °F -5.9 °F -2.2 °F 78% 30.02 in 10.0 mi WNW 4.6 mph - N/A   Mostly Cloudy
3:35 AM 4.5 °F -6.3 °F -1.3 °F 77% 30.01 in 10.0 mi NW 5.8 mph - N/A   Clear
3:55 AM 4.8 °F -8.3 °F -2.6 °F 72% 30.00 in 10.0 mi NW 8.1 mph - N/A   Clear
4:15 AM 4.3 °F -6.5 °F -2.0 °F 75% 29.99 in 10.0 mi WNW 5.8 mph - N/A   Clear
4:35 AM 4.8 °F -7.1 °F -1.3 °F 76% 29.99 in 10.0 mi WNW 6.9 mph - N/A   Clear
4:55 AM 4.6 °F -7.4 °F -2.4 °F 73% 29.99 in 10.0 mi West 6.9 mph - N/A   Clear
5:15 AM 3.6 °F -7.3 °F -3.1 °F 74% 29.99 in 10.0 mi WNW 5.8 mph - N/A   Clear
5:35 AM 5.0 °F -4.1 °F -1.8 °F 73% 29.99 in 10.0 mi WNW 4.6 mph - N/A   Clear
5:55 AM 5.9 °F -7.0 °F -1.8 °F 70% 29.99 in 10.0 mi West 8.1 mph - N/A   Clear
6:15 AM 5.4 °F -5.2 °F -2.7 °F 69% 29.98 in 10.0 mi WNW 5.8 mph - N/A   Clear
6:35 AM 3.9 °F -8.2 °F -2.7 °F 74% 29.98 in 10.0 mi WNW 6.9 mph - N/A   Clear
6:55 AM 2.8 °F -9.5 °F -3.5 °F 75% 29.98 in 10.0 mi WNW 6.9 mph - N/A   Clear
7:15 AM 3.9 °F -8.2 °F -3.1 °F 73% 29.99 in 10.0 mi WNW 6.9 mph - N/A   Clear
7:35 AM 7.3 °F -2.8 °F -0.8 °F 69% 29.99 in 10.0 mi NW 5.8 mph - N/A   Clear
7:55 AM 13.6 °F 6.0 °F 1.0 °F 57% 29.99 in 10.0 mi WSW 4.6 mph - N/A   Clear
8:15 AM 15.4 °F 9.8 °F 1.0 °F 53% 29.99 in 10.0 mi SW 3.5 mph - N/A   Clear
8:35 AM 17.8 °F 10.9 °F 1.4 °F 49% 29.99 in 10.0 mi SSW 4.6 mph - N/A   Clear
8:55 AM 19.9 °F - -0.0 °F 42% 29.99 in 10.0 mi Calm Calm - N/A   Clear
9:15 AM 21.9 °F 13.4 °F 2.1 °F 42% 29.99 in 10.0 mi SSW 6.9 mph - N/A   Clear
9:35 AM 23.4 °F 17.4 °F 2.8 °F 41% 29.99 in 10.0 mi SE 4.6 mph - N/A   Clear
9:55 AM 25.3 °F 19.7 °F -0.2 °F 33% 29.99 in 10.0 mi SE 4.6 mph - N/A   Clear
10:15 AM 24.6 °F 20.3 °F 2.1 °F 38% 29.98 in 10.0 mi SSE 3.5 mph - N/A   Clear
10:35 AM 25.9 °F 20.3 °F 7.5 °F 46% 29.99 in 10.0 mi ESE 4.6 mph - N/A   Clear
10:55 AM 24.3 °F 17.3 °F 10.4 °F 56% 29.99 in 10.0 mi ESE 5.8 mph - N/A   Clear
11:15 AM 25.3 °F 14.7 °F 10.0 °F 52% 29.98 in 10.0 mi East 11.5 mph 16.1 mph N/A   Clear
11:35 AM 25.2 °F 13.3 °F 2.5 °F 38% 29.97 in 10.0 mi North 13.8 mph 18.4 mph N/A   Mostly Cloudy
11:55 AM 28.2 °F 15.9 °F 2.1 °F 33% 29.97 in 10.0 mi North 17.3 mph 24.2 mph N/A   Mostly Cloudy
12:15 PM 25.3 °F 13.1 °F 1.9 °F 37% 29.97 in 10.0 mi North 15.0 mph 24.2 mph N/A   Mostly Cloudy
12:35 PM 26.6 °F 14.3 °F 2.5 °F 36% 29.97 in 10.0 mi North 16.1 mph 20.7 mph N/A   Overcast
12:55 PM 25.5 °F 14.3 °F 3.6 °F 39% 29.97 in 10.0 mi North 12.7 mph 19.6 mph N/A   Overcast
1:15 PM 25.3 °F 12.6 °F 3.9 °F 40% 29.97 in 10.0 mi North 16.1 mph 24.2 mph N/A   Overcast
1:35 PM 24.3 °F 11.7 °F 8.1 °F 50% 29.98 in 10.0 mi North 15.0 mph 23.0 mph N/A   Mostly Cloudy
1:55 PM 23.5 °F 13.0 °F 10.8 °F 58% 29.98 in 10.0 mi NNE 10.4 mph - N/A   Overcast
2:15 PM 22.5 °F 11.7 °F 10.2 °F 59% 29.98 in 7.0 mi ENE 10.4 mph 18.4 mph N/A Snow Light Snow
2:35 PM 22.1 °F 13.7 °F 9.7 °F 59% 29.98 in 10.0 mi NE 6.9 mph - N/A   Overcast
2:55 PM 20.3 °F 8.3 °F 8.8 °F 61% 29.98 in 7.0 mi NE 11.5 mph 17.3 mph N/A   Overcast
3:15 PM 21.7 °F 11.5 °F 7.3 °F 54% 29.98 in 10.0 mi NE 9.2 mph - N/A   Overcast
3:35 PM 20.3 °F 9.0 °F 6.8 °F 56% 29.98 in 10.0 mi NE 10.4 mph - N/A   Overcast
3:55 PM 20.3 °F 7.7 °F 9.9 °F 64% 29.98 in 10.0 mi NE 12.7 mph 17.3 mph N/A   Overcast
4:15 PM 20.7 °F 8.2 °F 7.9 °F 58% 29.99 in 10.0 mi NNE 12.7 mph - N/A   Overcast
4:35 PM 20.7 °F 8.8 °F 8.4 °F 59% 29.99 in 10.0 mi North 11.5 mph 17.3 mph N/A   Overcast
4:55 PM 20.8 °F 7.3 °F 7.7 °F 57% 30.00 in 10.0 mi North 15.0 mph 20.7 mph N/A   Overcast
5:15 PM 20.5 °F 6.9 °F 8.1 °F 59% 30.00 in 10.0 mi North 15.0 mph 20.7 mph N/A   Overcast
5:35 PM 20.5 °F 6.4 °F 7.3 °F 57% 30.00 in 10.0 mi North 16.1 mph 21.9 mph N/A   Overcast
5:55 PM 19.4 °F 4.5 °F 8.1 °F 61% 30.01 in 10.0 mi North 17.3 mph 20.7 mph N/A   Mostly Cloudy
6:15 PM 18.5 °F 3.3 °F 7.9 °F 63% 30.01 in 10.0 mi North 17.3 mph 23.0 mph N/A   Mostly Cloudy
6:35 PM 17.8 °F 4.6 °F 8.4 °F 67% 30.02 in 10.0 mi NNW 12.7 mph 21.9 mph N/A   Scattered Clouds
6:55 PM 17.2 °F 3.9 °F 8.1 °F 67% 30.02 in 10.0 mi North 12.7 mph - N/A   Clear
7:15 PM 16.3 °F 2.1 °F 7.7 °F 69% 30.03 in 10.0 mi North 13.8 mph 20.7 mph N/A   Clear
7:55 PM 15.1 °F 1.8 °F 7.3 °F 71% 30.04 in 10.0 mi NNW 11.5 mph - N/A   Clear
8:15 PM 14.9 °F 0.9 °F 7.7 °F 73% 30.05 in 10.0 mi NNW 12.7 mph 18.4 mph N/A   Clear
8:35 PM 14.5 °F 1.1 °F 7.5 °F 74% 30.06 in 10.0 mi NNW 11.5 mph - N/A   Clear
8:55 PM 14.0 °F -0.2 °F 7.3 °F 75% 30.06 in 10.0 mi NNW 12.7 mph - N/A   Clear
9:15 PM 14.0 °F 0.5 °F 7.2 °F 74% 30.08 in 10.0 mi NNW 11.5 mph - N/A   Clear
9:35 PM 13.8 °F -0.5 °F 7.3 °F 75% 30.08 in 10.0 mi NNW 12.7 mph 18.4 mph N/A   Clear
9:55 PM 13.8 °F 1.0 °F 8.4 °F 79% 30.09 in 10.0 mi NNW 10.4 mph 16.1 mph N/A Snow Light Snow
10:15 PM 13.1 °F 0.9 °F 8.4 °F 82% 30.09 in 10.0 mi NNW 9.2 mph - N/A   Clear
10:35 PM 12.9 °F 1.6 °F 7.7 °F 80% 30.09 in 10.0 mi NNW 8.1 mph - N/A   Clear
10:55 PM 13.1 °F 0.1 °F 7.7 °F 79% 30.09 in 10.0 mi NNW 10.4 mph 17.3 mph N/A   Clear
11:15 PM 12.7 °F 0.4 °F 8.1 °F 82% 30.10 in 10.0 mi NNW 9.2 mph - N/A   Clear
11:35 PM 12.0 °F 2.7 °F 7.7 °F 83% 30.10 in 10.0 mi NNW 5.8 mph - N/A   Clear
11:55 PM 12.2 °F 0.7 °F 7.7 °F 82% 30.10 in 10.0 mi North 8.1 mph - N/A   Clear